Location: Bogis-Bossey
(46.3500°N, 6.1667°E)
Time: 17:55:37
(UTC+00:00)

NOSS 3-2 (A) - Pass Details

Date: 17 August 2022
Orbit: 748 x 1459 km, 63.4° (Epoch: 27 August)

Event Time Altitude Azimuth Distance (km) Brightness Sun altitude
Rises 21:39:35 0° 320° (NW) 3,858 8.0 -24.7°
Reaches altitude 10° 21:42:10 10° 326° (NW) 3,000 7.1 -24.9°
Maximum altitude 21:49:19 54° 43° (NE) 1,508 4.5 -25.5°
Enters shadow 21:52:57 33° 102° (ESE) 2,080 4.8 -25.8°
